Weather History for KMLI - January, 2011

Change the Weather History Date:

Tuesday, January 11, 2011

  Actual Average Record
Temperature  
Mean Temperature 25 °F 22 °F  
Max Temperature 27 °F 31 °F 56 °F (1880)
Min Temperature 22 °F 14 °F -17 °F (1979)
Degree Days  
Heating Degree Days 40 42  
Month to date heating degree days 468 462  
Since 1 July heating degree days 2826 2883  
Cooling Degree Days 0 0  
Month to date cooling degree days 0 0  
Year to date cooling degree days 0 0  
Moisture  
Dew Point 20 °F    
Average Humidity 85    
Maximum Humidity 88    
Minimum Humidity 81    
Precipitation  
Precipitation 0.20 in 0.05 in 0.92 in (1960)
Month to date precipitation 0.20 0.57  
Year to date precipitation 0.20 0.57  
Snow  
Snow 2.60 in 0.30 in - ()
Month to date snowfall 3.7 3.4  
Since 1 July snowfall 21.0 13.9  
Snow Depth 3.00 in    
Sea Level Pressure  
Sea Level Pressure 30.18 in    
Wind  
Wind Speed 9 mph (NNE)    
Max Wind Speed 17 mph    
Max Gust Speed 23 mph    
Visibility 2 miles    
Events Snow    
T = Trace of Precipitation, MM = Missing Value Source: NWS Daily Summary

Daily Weather History Graph

Daily Weather History Graph

Search for Another Location

Airport or City:

Trip Planner

Search our weather history database for the weather conditions in past years. The results will help you decide how hot, cold, wet, or windy it might be!

Date:

Astronomy

Jan. 11, 2011 Rise Set
Actual Time 7:27 AM CST 4:52 PM CST
Civil Twilight 6:56 AM CST 5:23 PM CST
Nautical Twilight 6:22 AM CST 5:57 PM CST
Astronomical Twilight 5:49 AM CST 6:31 PM CST
Moon 10:42 AM CST (1/11) No Moon Set
Length of Visible Light 10h 26m
Length of Day
9h 25m
Waxing Crescent, 43% of the Moon is Illuminated
Jan 11
Waxing Crescent
Jan 12
First Quarter
Jan 19
Full
Jan 26
Last Quarter
Feb 2
New

Hourly Weather History & Observations

Time (CST) Temp. Windchill Dew Point Humidity Pressure Visibility Wind Dir Wind Speed Gust Speed Precip Events Conditions
12:08 AM 24.8 °F 16.1 °F 21.2 °F 86% 30.20 in 1.5 mi East 8.1 mph - 0.00 in Snow Light Snow
12:17 AM 24.8 °F 16.1 °F 21.2 °F 86% 30.20 in 1.2 mi East 8.1 mph - 0.01 in Snow Light Snow
12:24 AM 24.8 °F 15.3 °F 21.2 °F 86% 30.19 in 1.5 mi East 9.2 mph - 0.01 in Snow Light Snow
12:37 AM 24.8 °F 16.9 °F 21.2 °F 86% 30.19 in 1.2 mi ENE 6.9 mph - 0.01 in Snow Light Snow
12:52 AM 25.0 °F 15.5 °F 21.9 °F 88% 30.21 in 1.2 mi ENE 9.2 mph - 0.02 in Snow Light Snow
12:55 AM 24.8 °F 15.3 °F 21.2 °F 86% 30.19 in 1.5 mi ENE 9.2 mph - 0.00 in Snow Light Snow
1:08 AM 24.8 °F 16.1 °F 21.2 °F 86% 30.19 in 2.0 mi ENE 8.1 mph - 0.00 in Snow Light Snow
1:15 AM 24.8 °F 15.3 °F 21.2 °F 86% 30.18 in 1.2 mi East 9.2 mph - 0.01 in Snow Light Snow
1:28 AM 24.8 °F 15.3 °F 21.2 °F 86% 30.18 in 1.8 mi East 9.2 mph - 0.01 in Snow Light Snow
1:34 AM 24.8 °F 15.3 °F 21.2 °F 86% 30.19 in 2.0 mi East 9.2 mph - 0.01 in Snow Light Snow
1:52 AM 24.8 °F 16.1 °F 21.2 °F 86% 30.19 in 2.5 mi ENE 8.1 mph - N/A Snow Light Snow
2:01 AM 24.8 °F 16.1 °F 21.2 °F 86% 30.19 in 1.8 mi ENE 8.1 mph - 0.00 in Snow Light Snow
2:32 AM 24.8 °F 16.1 °F 21.2 °F 86% 30.19 in 2.0 mi East 8.1 mph - 0.00 in Snow Light Snow
2:44 AM 24.8 °F 16.1 °F 21.2 °F 86% 30.19 in 3.0 mi ENE 8.1 mph - 0.01 in Snow Light Snow
2:52 AM 24.1 °F 15.2 °F 21.0 °F 88% 30.21 in 4.0 mi ENE 8.1 mph - 0.01 in Snow Light Snow
3:04 AM 24.8 °F 15.3 °F 21.2 °F 86% 30.19 in 2.0 mi ENE 9.2 mph - 0.00 in Snow Light Snow
3:09 AM 24.8 °F 15.3 °F 21.2 °F 86% 30.19 in 1.2 mi ENE 9.2 mph - 0.00 in Snow Light Snow
3:17 AM 24.8 °F 15.3 °F 21.2 °F 86% 30.18 in 0.8 mi ENE 9.2 mph - 0.00 in Snow Light Snow
3:28 AM 24.8 °F 15.3 °F 21.2 °F 86% 30.18 in 1.0 mi ENE 9.2 mph - 0.01 in Snow Light Snow
3:52 AM 24.1 °F 15.2 °F 21.0 °F 88% 30.19 in 1.2 mi ENE 8.1 mph - 0.02 in Snow Light Snow
4:01 AM 24.8 °F 15.3 °F 21.2 °F 86% 30.17 in 1.2 mi ENE 9.2 mph - 0.01 in Snow Light Snow
4:37 AM 24.8 °F 14.0 °F 21.2 °F 86% 30.15 in 1.5 mi ENE 11.5 mph - 0.02 in Snow Light Snow
4:44 AM 24.8 °F 15.3 °F 21.2 °F 86% 30.15 in 1.5 mi ENE 9.2 mph - N/A Snow Light Snow
4:52 AM 24.1 °F 13.1 °F 21.0 °F 88% 30.17 in 1.8 mi ENE 11.5 mph - 0.02 in Snow Light Snow
5:00 AM 24.8 °F 14.6 °F 21.2 °F 86% 30.14 in 2.0 mi ENE 10.4 mph - 0.00 in Snow Light Snow
5:10 AM 24.8 °F 13.4 °F 21.2 °F 86% 30.14 in 1.8 mi ENE 12.7 mph - 0.00 in Snow Light Snow
5:49 AM 24.8 °F 14.0 °F 19.4 °F 80% 30.14 in 2.0 mi ENE 11.5 mph - 0.01 in Snow Light Snow
5:52 AM 24.1 °F 13.1 °F 19.9 °F 84% 30.17 in 2.0 mi ENE 11.5 mph - 0.01 in Snow Light Snow
6:09 AM 24.8 °F 14.6 °F 19.4 °F 80% 30.14 in 1.8 mi ENE 10.4 mph - N/A Snow Light Snow
6:20 AM 24.8 °F 15.3 °F 19.4 °F 80% 30.13 in 2.0 mi ENE 9.2 mph - 0.00 in Snow Light Snow
6:52 AM 23.0 °F 13.1 °F 19.0 °F 85% 30.17 in 3.0 mi ENE 9.2 mph - 0.01 in Snow Light Snow
6:59 AM 23.0 °F 13.1 °F 19.4 °F 86% 30.14 in 2.5 mi ENE 9.2 mph - 0.00 in Snow Light Snow
7:28 AM 23.0 °F 13.1 °F 19.4 °F 86% 30.14 in 2.0 mi NE 9.2 mph - 0.00 in Snow Light Snow
7:36 AM 23.0 °F 15.8 °F 19.4 °F 86% 30.14 in 2.0 mi NE 5.8 mph - 0.00 in Snow Light Snow
7:52 AM 24.1 °F 18.2 °F 19.9 °F 84% 30.17 in 2.0 mi NE 4.6 mph - 0.00 in Snow Light Snow
7:59 AM 24.8 °F 17.9 °F 19.4 °F 80% 30.14 in 1.5 mi NE 5.8 mph - 0.00 in Snow Light Snow
8:21 AM 24.8 °F 19.1 °F 19.4 °F 80% 30.15 in 1.0 mi NE 4.6 mph - 0.01 in Snow Light Snow
8:35 AM 24.8 °F 16.9 °F 19.4 °F 80% 30.15 in 1.0 mi NE 6.9 mph - 0.01 in Snow Light Snow
8:52 AM 24.1 °F 17.0 °F 19.9 °F 84% 30.17 in 1.2 mi NE 5.8 mph - 0.01 in Snow Light Snow
9:05 AM 24.8 °F 19.1 °F 19.4 °F 80% 30.15 in 1.8 mi NNE 4.6 mph - 0.01 in Snow Light Snow
9:28 AM 24.8 °F 17.9 °F 19.4 °F 80% 30.15 in 1.2 mi NNE 5.8 mph - 0.01 in Snow Light Snow
9:52 AM 25.0 °F 19.3 °F 19.9 °F 81% 30.18 in 1.0 mi NNE 4.6 mph - 0.01 in Snow Light Snow
9:59 AM 24.8 °F 19.1 °F 21.2 °F 86% 30.15 in 1.0 mi North 4.6 mph - 0.00 in Snow Light Snow
10:08 AM 24.8 °F 17.9 °F 21.2 °F 86% 30.15 in 0.8 mi NNE 5.8 mph - 0.01 in Snow Light Snow
10:52 AM 26.1 °F 19.4 °F 21.0 °F 81% 30.17 in 0.8 mi NNW 5.8 mph - 0.02 in Snow Light Snow
10:59 AM 24.8 °F 17.9 °F 21.2 °F 86% 30.14 in 1.2 mi North 5.8 mph - 0.00 in Snow Light Snow
11:48 AM 26.6 °F 18.2 °F 21.2 °F 80% 30.13 in 1.2 mi WNW 8.1 mph - 0.01 in Snow Light Snow
11:52 AM 26.1 °F 16.8 °F 21.9 °F 84% 30.15 in 1.5 mi NW 9.2 mph - 0.01 in Snow Light Snow
12:17 PM 26.6 °F 17.5 °F 21.2 °F 80% 30.12 in 1.0 mi NW 9.2 mph - 0.00 in Snow Light Snow
12:29 PM 26.6 °F 17.5 °F 21.2 °F 80% 30.12 in 1.0 mi NW 9.2 mph - 0.00 in Snow Light Snow
12:39 PM 26.6 °F 20.0 °F 23.0 °F 86% 30.12 in 1.5 mi NNW 5.8 mph - 0.00 in Snow Light Snow
12:52 PM 27.0 °F 18.7 °F 21.9 °F 81% 30.14 in 1.5 mi NNW 8.1 mph - 0.00 in Snow Light Snow
12:59 PM 26.6 °F 17.5 °F 21.2 °F 80% 30.12 in 1.5 mi NNW 9.2 mph - 0.00 in Snow Light Snow
1:23 PM 26.6 °F 17.5 °F 21.2 °F 80% 30.12 in 1.0 mi NNW 9.2 mph - 0.01 in Snow Light Snow
1:37 PM 26.6 °F 16.8 °F 21.2 °F 80% 30.12 in 1.0 mi NW 10.4 mph - 0.01 in Snow Light Snow
1:45 PM 26.6 °F 17.5 °F 23.0 °F 86% 30.13 in 2.0 mi NW 9.2 mph - 0.01 in Snow Light Snow
1:52 PM 27.0 °F 18.7 °F 21.9 °F 81% 30.16 in 2.0 mi NW 8.1 mph - 0.01 in Snow Light Snow
2:48 PM 26.6 °F 16.8 °F 21.2 °F 80% 30.15 in 2.0 mi NNW 10.4 mph 20.7 mph 0.01 in Snow Light Snow
2:52 PM 27.0 °F 16.7 °F 21.0 °F 78% 30.18 in 1.5 mi NNW 11.5 mph - 0.01 in Snow Light Snow
3:52 PM 26.1 °F 17.6 °F 21.0 °F 81% 30.21 in 1.5 mi NW 8.1 mph - 0.00 in Snow Light Snow
3:57 PM 26.6 °F 16.8 °F 21.2 °F 80% 30.19 in 3.0 mi NNW 10.4 mph - 0.00 in Snow Light Snow
4:52 PM 26.1 °F 16.8 °F 21.9 °F 84% 30.23 in 4.0 mi NW 9.2 mph - 0.00 in Snow Light Snow
5:20 PM 24.8 °F 15.3 °F 21.2 °F 86% 30.22 in 6.0 mi WNW 9.2 mph - 0.00 in Snow Light Snow
5:52 PM 25.0 °F 16.3 °F 19.9 °F 81% 30.25 in 6.0 mi WNW 8.1 mph - 0.00 in   Haze
6:35 PM 24.8 °F 15.3 °F 19.4 °F 80% 30.24 in 9.0 mi WNW 9.2 mph - 0.00 in   Mostly Cloudy
6:52 PM 24.1 °F 13.7 °F 19.9 °F 84% 30.27 in 9.0 mi WNW 10.4 mph - 0.00 in   Mostly Cloudy
7:52 PM 24.1 °F 12.5 °F 19.0 °F 81% 30.28 in 8.0 mi WNW 12.7 mph - N/A   Overcast
8:52 PM 23.0 °F 13.1 °F 18.0 °F 81% 30.30 in 8.0 mi WNW 9.2 mph - N/A   Overcast
9:52 PM 21.9 °F 10.4 °F 17.1 °F 82% 30.31 in 8.0 mi WNW 11.5 mph - N/A   Overcast
10:17 PM 21.2 °F 7.8 °F 17.6 °F 86% 30.28 in 7.0 mi West 15.0 mph - N/A   Overcast
10:52 PM 21.9 °F 9.8 °F 17.1 °F 82% 30.32 in 6.0 mi WNW 12.7 mph - 0.00 in Snow Light Snow
11:37 PM 21.2 °F 8.3 °F 17.6 °F 86% 30.29 in 3.0 mi WNW 13.8 mph - 0.00 in Snow Light Snow
11:43 PM 21.2 °F 9.5 °F 17.6 °F 86% 30.30 in 2.5 mi West 11.5 mph - 0.00 in Snow Light Snow
11:52 PM 21.9 °F 9.8 °F 18.0 °F 85% 30.32 in 2.5 mi WNW 12.7 mph 19.6 mph 0.00 in Snow Light Snow